Time,TemperatureF,DewpointF,PressureIn,WindDirection,WindDirectionDegrees,WindSpeedMPH,WindSpeedGustMPH,Humidity,HourlyPrecipIn,Conditions,Clouds,dailyrainin,SoftwareType,DateUTC
2013-03-31 00:02:00,32.0,32.0,-100.00,WNW,295,9.0,14.0,97,0.00,,,0.00,,2013-03-31 05:02:00,
2013-03-31 00:12:00,33.0,32.0,-100.00,WNW,295,10.0,12.0,97,0.00,,,0.00,,2013-03-31 05:12:00,
2013-03-31 00:22:00,33.0,32.0,-100.00,WNW,290,9.0,12.0,97,0.00,,,0.00,,2013-03-31 05:22:00,
2013-03-31 00:32:00,33.0,32.0,-100.00,WNW,285,12.0,15.0,97,0.00,,,0.00,,2013-03-31 05:32:00,
2013-03-31 00:42:00,33.0,32.0,-100.00,WNW,300,12.0,17.0,97,0.00,,,0.00,,2013-03-31 05:42:00,
2013-03-31 00:52:00,33.0,32.0,-100.00,WNW,295,9.0,14.0,97,0.00,,,0.00,,2013-03-31 05:52:00,
2013-03-31 01:02:00,33.0,32.0,-100.00,WNW,300,10.0,14.0,97,0.00,,,0.00,,2013-03-31 06:02:00,
2013-03-31 01:12:00,33.0,32.0,-100.00,WNW,295,9.0,13.0,97,0.00,,,0.00,,2013-03-31 06:12:00,
2013-03-31 01:22:00,33.0,32.0,-100.00,WNW,295,12.0,14.0,97,0.00,,,0.00,,2013-03-31 06:22:00,
2013-03-31 01:32:00,33.0,32.0,-100.00,WNW,285,12.0,15.0,97,0.00,,,0.00,,2013-03-31 06:32:00,
2013-03-31 01:42:00,32.0,32.0,-100.00,West,280,10.0,14.0,97,0.00,,,0.00,,2013-03-31 06:42:00,
2013-03-31 01:52:00,32.0,32.0,-100.00,West,280,12.0,15.0,97,0.00,,,0.00,,2013-03-31 06:52:00,
2013-03-31 02:02:00,32.0,32.0,-100.00,West,280,15.0,17.0,97,0.00,,,0.00,,2013-03-31 07:02:00,
2013-03-31 02:12:00,32.0,30.0,-100.00,West,275,12.0,18.0,97,0.00,,,0.00,,2013-03-31 07:12:00,
2013-03-31 02:22:00,32.0,30.0,-100.00,West,280,14.0,16.0,97,0.00,,,0.00,,2013-03-31 07:22:00,
2013-03-31 02:32:00,32.0,30.0,-100.00,West,280,11.0,18.0,97,0.00,,,0.00,,2013-03-31 07:32:00,
2013-03-31 02:42:00,32.0,30.0,-100.00,WNW,295,11.0,16.0,97,0.00,,,0.00,,2013-03-31 07:42:00,
2013-03-31 02:52:00,31.0,30.0,-100.00,WNW,285,11.0,14.0,97,0.00,,,0.00,,2013-03-31 07:52:00,
2013-03-31 03:02:00,31.0,30.0,-100.00,WNW,290,10.0,14.0,97,0.00,,,0.00,,2013-03-31 08:02:00,
2013-03-31 03:12:00,31.0,30.0,-100.00,WNW,290,9.0,12.0,97,0.00,,,0.00,,2013-03-31 08:12:00,
2013-03-31 03:22:00,31.0,30.0,-100.00,WNW,290,9.0,12.0,97,0.00,,,0.00,,2013-03-31 08:22:00,
2013-03-31 03:32:00,31.0,30.0,-100.00,WNW,285,7.0,9.0,97,0.00,,,0.00,,2013-03-31 08:32:00,
2013-03-31 03:42:00,31.0,30.0,-100.00,West,280,7.0,11.0,97,0.00,,,0.00,,2013-03-31 08:42:00,
2013-03-31 03:52:00,31.0,30.0,-100.00,WNW,285,7.0,9.0,97,0.00,,,0.00,,2013-03-31 08:52:00,
2013-03-31 04:02:00,31.0,30.0,-100.00,West,280,8.0,13.0,97,0.00,,,0.00,,2013-03-31 09:02:00,
2013-03-31 04:12:00,32.0,30.0,-100.00,West,275,11.0,14.0,96,0.00,,,0.00,,2013-03-31 09:12:00,
2013-03-31 04:22:00,32.0,32.0,-100.00,West,275,11.0,14.0,96,0.00,,,0.00,,2013-03-31 09:22:00,
2013-03-31 04:33:00,33.0,32.0,-100.00,West,275,13.0,19.0,95,0.00,,,0.00,,2013-03-31 09:33:00,
2013-03-31 04:42:00,33.0,32.0,-100.00,West,280,16.0,21.0,94,0.00,,,0.00,,2013-03-31 09:42:00,
2013-03-31 04:53:00,33.0,30.0,-100.00,WNW,295,19.0,24.0,92,0.00,,,0.00,,2013-03-31 09:53:00,
2013-03-31 05:03:00,33.0,30.0,-100.00,WNW,295,21.0,27.0,88,0.00,,,0.00,,2013-03-31 10:03:00,
2013-03-31 05:13:00,33.0,28.0,-100.00,WNW,300,17.0,24.0,87,0.00,,,0.00,,2013-03-31 10:13:00,
2013-03-31 05:23:00,32.0,28.0,-100.00,WNW,300,18.0,27.0,86,0.00,,,0.00,,2013-03-31 10:23:00,
2013-03-31 05:32:00,32.0,28.0,-100.00,NW,305,21.0,29.0,86,0.00,,,0.00,,2013-03-31 10:32:00,
2013-03-31 05:42:00,32.0,28.0,-100.00,WNW,300,17.0,26.0,85,0.00,,,0.00,,2013-03-31 10:42:00,
2013-03-31 05:52:00,32.0,28.0,-100.00,WNW,300,21.0,30.0,85,0.00,,,0.00,,2013-03-31 10:52:00,
2013-03-31 06:02:00,32.0,28.0,-100.00,NW,310,22.0,31.0,85,0.00,,,0.00,,2013-03-31 11:02:00,
2013-03-31 06:12:00,32.0,28.0,-100.00,NW,310,20.0,27.0,85,0.00,,,0.00,,2013-03-31 11:12:00,
2013-03-31 06:23:00,32.0,28.0,-100.00,NW,305,19.0,23.0,86,0.00,,,0.00,,2013-03-31 11:23:00,
2013-03-31 06:32:00,32.0,28.0,-100.00,WNW,300,19.0,27.0,86,0.00,,,0.00,,2013-03-31 11:32:00,
2013-03-31 06:42:00,31.0,28.0,-100.00,NW,310,20.0,25.0,86,0.00,,,0.00,,2013-03-31 11:42:00,
2013-03-31 06:52:00,31.0,28.0,-100.00,NW,315,19.0,25.0,86,0.00,,,0.00,,2013-03-31 11:52:00,
2013-03-31 07:02:00,31.0,28.0,-100.00,NW,310,22.0,26.0,87,0.00,,,0.00,,2013-03-31 12:02:00,
2013-03-31 07:12:00,31.0,28.0,-100.00,NW,315,17.0,26.0,87,0.00,,,0.00,,2013-03-31 12:12:00,
2013-03-31 07:22:00,31.0,28.0,-100.00,NW,325,19.0,28.0,87,0.00,,,0.00,,2013-03-31 12:22:00,
2013-03-31 07:33:00,31.0,28.0,-100.00,NW,315,19.0,27.0,87,0.00,,,0.00,,2013-03-31 12:33:00,
2013-03-31 07:42:00,31.0,28.0,-100.00,NW,320,19.0,26.0,87,0.00,,,0.00,,2013-03-31 12:42:00,
2013-03-31 07:52:00,31.0,28.0,-100.00,NW,320,19.0,29.0,87,0.00,,,0.00,,2013-03-31 12:52:00,
2013-03-31 08:02:00,31.0,28.0,-100.00,NW,320,19.0,27.0,87,0.00,,,0.00,,2013-03-31 13:02:00,
2013-03-31 08:12:00,31.0,27.0,-100.00,NW,320,22.0,30.0,87,0.00,,,0.00,,2013-03-31 13:12:00,
2013-03-31 08:22:00,30.0,27.0,-100.00,NW,325,21.0,29.0,86,0.00,,,0.00,,2013-03-31 13:22:00,
2013-03-31 08:32:00,30.0,27.0,-100.00,NW,320,19.0,29.0,85,0.00,,,0.00,,2013-03-31 13:32:00,
2013-03-31 08:42:00,30.0,27.0,-100.00,NW,315,20.0,29.0,85,0.00,,,0.00,,2013-03-31 13:42:00,
2013-03-31 08:52:00,29.0,25.0,-100.00,NW,315,21.0,30.0,85,0.00,,,0.00,,2013-03-31 13:52:00,
2013-03-31 09:02:00,29.0,25.0,-100.00,NW,320,19.0,30.0,85,0.00,,,0.00,,2013-03-31 14:02:00,
2013-03-31 09:12:00,29.0,25.0,-100.00,NW,320,19.0,24.0,85,0.00,,,0.00,,2013-03-31 14:12:00,
2013-03-31 09:22:00,29.0,25.0,-100.00,NW,320,24.0,29.0,82,0.00,,,0.00,,2013-03-31 14:22:00,
2013-03-31 09:32:00,29.0,25.0,-100.00,NW,320,22.0,29.0,82,0.00,,,0.00,,2013-03-31 14:32:00,
2013-03-31 09:42:00,29.0,25.0,-100.00,NW,315,27.0,32.0,82,0.00,,,0.00,,2013-03-31 14:42:00,
2013-03-31 09:52:00,29.0,25.0,-100.00,NW,315,20.0,30.0,82,0.00,,,0.00,,2013-03-31 14:52:00,
2013-03-31 10:02:00,29.0,25.0,-100.00,NW,320,22.0,30.0,80,0.00,,,0.00,,2013-03-31 15:02:00,
2013-03-31 10:12:00,29.0,23.0,-100.00,NW,320,25.0,32.0,78,0.00,,,0.00,,2013-03-31 15:12:00,
2013-03-31 10:22:00,29.0,23.0,-100.00,NW,320,26.0,35.0,75,0.00,,,0.00,,2013-03-31 15:22:00,
2013-03-31 10:33:00,29.0,21.0,-100.00,NW,320,28.0,34.0,72,0.00,,,0.00,,2013-03-31 15:33:00,
2013-03-31 10:43:00,29.0,21.0,-100.00,NW,320,25.0,33.0,70,0.00,,,0.00,,2013-03-31 15:43:00,
2013-03-31 10:53:00,29.0,19.0,-100.00,NW,325,24.0,32.0,69,0.00,,,0.00,,2013-03-31 15:53:00,
2013-03-31 11:03:00,29.0,19.0,-100.00,NW,320,24.0,31.0,68,0.00,,,0.00,,2013-03-31 16:03:00,
2013-03-31 11:13:00,29.0,19.0,-100.00,NW,320,22.0,31.0,66,0.00,,,0.00,,2013-03-31 16:13:00,
2013-03-31 11:23:00,29.0,19.0,-100.00,NW,325,22.0,32.0,66,0.00,,,0.00,,2013-03-31 16:23:00,
2013-03-31 11:33:00,28.0,19.0,-100.00,NW,320,21.0,32.0,66,0.00,,,0.00,,2013-03-31 16:33:00,
2013-03-31 11:42:00,29.0,19.0,-100.00,NW,320,23.0,32.0,67,0.00,,,0.00,,2013-03-31 16:42:00,
2013-03-31 11:53:00,28.0,18.0,-100.00,NW,325,22.0,34.0,65,0.00,,,0.00,,2013-03-31 16:53:00,
2013-03-31 12:03:00,28.0,18.0,-100.00,NW,315,24.0,31.0,63,0.00,,,0.00,,2013-03-31 17:03:00,
2013-03-31 12:12:00,28.0,16.0,-100.00,NNW,335,21.0,33.0,60,0.00,,,0.00,,2013-03-31 17:12:00,
2013-03-31 12:22:00,29.0,16.0,-100.00,NW,320,21.0,30.0,60,0.00,,,0.00,,2013-03-31 17:22:00,
2013-03-31 12:32:00,28.0,16.0,-100.00,NW,320,26.0,31.0,59,0.00,,,0.00,,2013-03-31 17:32:00,
2013-03-31 12:42:00,29.0,16.0,-100.00,NW,320,22.0,29.0,60,0.00,,,0.00,,2013-03-31 17:42:00,
2013-03-31 12:52:00,29.0,18.0,-100.00,NW,310,21.0,29.0,61,0.00,,,0.00,,2013-03-31 17:52:00,
2013-03-31 13:02:00,28.0,16.0,-100.00,NW,325,19.0,29.0,61,0.00,,,0.00,,2013-03-31 18:02:00,
2013-03-31 13:12:00,28.0,18.0,-100.00,NW,315,23.0,30.0,63,0.00,,,0.00,,2013-03-31 18:12:00,
2013-03-31 13:22:00,28.0,18.0,-100.00,NW,320,22.0,30.0,64,0.00,,,0.00,,2013-03-31 18:22:00,
2013-03-31 13:32:00,29.0,18.0,-100.00,NW,320,22.0,32.0,64,0.00,,,0.00,,2013-03-31 18:32:00,
2013-03-31 13:42:00,28.0,18.0,-100.00,NW,325,21.0,29.0,63,0.00,,,0.00,,2013-03-31 18:42:00,
2013-03-31 13:52:00,27.0,18.0,-100.00,NW,315,26.0,32.0,64,0.00,,,0.00,,2013-03-31 18:52:00,
2013-03-31 14:03:00,27.0,16.0,-100.00,NW,325,26.0,32.0,62,0.00,,,0.00,,2013-03-31 19:03:00,
2013-03-31 14:12:00,27.0,16.0,-100.00,NW,320,21.0,32.0,61,0.00,,,0.00,,2013-03-31 19:12:00,
2013-03-31 14:22:00,27.0,16.0,-100.00,NW,320,24.0,30.0,60,0.00,,,0.00,,2013-03-31 19:22:00,
2013-03-31 14:32:00,28.0,16.0,-100.00,NNW,330,25.0,31.0,60,0.00,,,0.00,,2013-03-31 19:32:00,
2013-03-31 14:42:00,27.0,16.0,-100.00,NW,325,22.0,29.0,60,0.00,,,0.00,,2013-03-31 19:42:00,
2013-03-31 14:53:00,27.0,16.0,-100.00,NW,320,24.0,29.0,61,0.00,,,0.00,,2013-03-31 19:53:00,
2013-03-31 15:02:00,26.0,16.0,-100.00,NW,325,23.0,29.0,63,0.00,,,0.00,,2013-03-31 20:02:00,
2013-03-31 15:12:00,27.0,16.0,-100.00,NW,315,22.0,31.0,64,0.00,,,0.00,,2013-03-31 20:12:00,
2013-03-31 15:22:00,27.0,18.0,-100.00,NW,325,21.0,30.0,64,0.00,,,0.00,,2013-03-31 20:22:00,
2013-03-31 15:33:00,27.0,16.0,-100.00,NNW,340,20.0,29.0,64,0.00,,,0.00,,2013-03-31 20:33:00,
2013-03-31 15:43:00,27.0,18.0,-100.00,NNW,330,21.0,28.0,66,0.00,,,0.00,,2013-03-31 20:43:00,
2013-03-31 15:52:00,27.0,16.0,-100.00,NW,320,23.0,31.0,63,0.00,,,0.00,,2013-03-31 20:52:00,
2013-03-31 16:02:00,26.0,16.0,-100.00,NNW,330,23.0,29.0,64,0.00,,,0.00,,2013-03-31 21:02:00,
2013-03-31 16:12:00,28.0,18.0,-100.00,NW,315,17.0,27.0,64,0.00,,,0.00,,2013-03-31 21:12:00,
2013-03-31 16:22:00,27.0,18.0,-100.00,NW,320,22.0,29.0,65,0.00,,,0.00,,2013-03-31 21:22:00,
2013-03-31 16:33:00,28.0,18.0,-100.00,NW,320,19.0,29.0,64,0.00,,,0.00,,2013-03-31 21:33:00,
2013-03-31 16:43:00,27.0,16.0,-100.00,NNW,330,20.0,28.0,62,0.00,,,0.00,,2013-03-31 21:43:00,
2013-03-31 16:53:00,27.0,16.0,-100.00,NW,325,24.0,29.0,62,0.00,,,0.00,,2013-03-31 21:53:00,
2013-03-31 17:03:00,27.0,16.0,-100.00,NW,320,21.0,27.0,63,0.00,,,0.00,,2013-03-31 22:03:00,
2013-03-31 17:13:00,26.0,16.0,-100.00,NW,325,22.0,28.0,62,0.00,,,0.00,,2013-03-31 22:13:00,
2013-03-31 17:23:00,27.0,16.0,-100.00,NW,320,21.0,26.0,62,0.00,,,0.00,,2013-03-31 22:23:00,
2013-03-31 17:33:00,26.0,16.0,-100.00,NW,325,21.0,29.0,62,0.00,,,0.00,,2013-03-31 22:33:00,
2013-03-31 17:42:00,26.0,16.0,-100.00,NW,325,21.0,29.0,63,0.00,,,0.00,,2013-03-31 22:42:00,
2013-03-31 17:52:00,26.0,14.0,-100.00,NW,325,21.0,27.0,63,0.00,,,0.00,,2013-03-31 22:52:00,
2013-03-31 18:03:00,26.0,16.0,-100.00,NW,310,21.0,28.0,64,0.00,,,0.00,,2013-03-31 23:03:00,
2013-03-31 18:13:00,25.0,14.0,-100.00,NW,320,23.0,29.0,63,0.00,,,0.00,,2013-03-31 23:13:00,
2013-03-31 18:22:00,24.0,14.0,-100.00,NW,325,25.0,33.0,63,0.00,,,0.00,,2013-03-31 23:22:00,
2013-03-31 18:32:00,24.0,14.0,-100.00,NW,320,22.0,32.0,63,0.00,,,0.00,,2013-03-31 23:32:00,
2013-03-31 18:42:00,24.0,14.0,-100.00,NW,320,22.0,32.0,63,0.00,,,0.00,,2013-03-31 23:42:00,
2013-03-31 18:52:00,24.0,14.0,-100.00,NNW,330,22.0,32.0,64,0.00,,,0.00,,2013-03-31 23:52:00,
2013-03-31 19:02:00,24.0,14.0,-100.00,NW,315,22.0,32.0,64,0.00,,,0.00,,2013-04-01 00:02:00,
2013-03-31 19:12:00,24.0,14.0,-100.00,NW,320,22.0,30.0,65,0.00,,,0.00,,2013-04-01 00:12:00,
2013-03-31 19:22:00,23.0,12.0,-100.00,NW,325,23.0,32.0,64,0.00,,,0.00,,2013-04-01 00:22:00,
2013-03-31 19:32:00,22.0,12.0,-100.00,NW,325,20.0,29.0,65,0.00,,,0.00,,2013-04-01 00:32:00,
2013-03-31 19:42:00,22.0,12.0,-100.00,NW,325,21.0,28.0,65,0.00,,,0.00,,2013-04-01 00:42:00,
2013-03-31 19:52:00,22.0,12.0,-100.00,NNW,330,26.0,32.0,65,0.00,,,0.00,,2013-04-01 00:52:00,
2013-03-31 20:02:00,22.0,12.0,-100.00,NW,325,21.0,30.0,66,0.00,,,0.00,,2013-04-01 01:02:00,
2013-03-31 20:12:00,21.0,12.0,-100.00,NW,320,19.0,29.0,66,0.00,,,0.00,,2013-04-01 01:12:00,
2013-03-31 20:22:00,21.0,12.0,-100.00,NNW,330,17.0,29.0,67,0.00,,,0.00,,2013-04-01 01:22:00,
2013-03-31 20:32:00,21.0,12.0,-100.00,NW,325,18.0,24.0,67,0.00,,,0.00,,2013-04-01 01:32:00,
2013-03-31 20:42:00,21.0,12.0,-100.00,NW,325,14.0,24.0,67,0.00,,,0.00,,2013-04-01 01:42:00,
2013-03-31 20:52:00,21.0,12.0,-100.00,NNW,330,17.0,24.0,67,0.00,,,0.00,,2013-04-01 01:52:00,
2013-03-31 21:02:00,21.0,12.0,-100.00,NNW,335,17.0,24.0,67,0.00,,,0.00,,2013-04-01 02:02:00,
2013-03-31 21:12:00,21.0,12.0,-100.00,NNW,335,17.0,24.0,67,0.00,,,0.00,,2013-04-01 02:12:00,
2013-03-31 21:22:00,21.0,10.0,-100.00,NNW,330,14.0,24.0,66,0.00,,,0.00,,2013-04-01 02:22:00,
2013-03-31 21:32:00,21.0,10.0,-100.00,NNW,340,15.0,21.0,65,0.00,,,0.00,,2013-04-01 02:32:00,
2013-03-31 21:42:00,21.0,10.0,-100.00,NNW,330,15.0,21.0,66,0.00,,,0.00,,2013-04-01 02:42:00,
2013-03-31 21:52:00,20.0,12.0,-100.00,NNW,330,15.0,19.0,67,0.00,,,0.00,,2013-04-01 02:52:00,
2013-03-31 22:02:00,20.0,12.0,-100.00,NNW,335,17.0,22.0,68,0.00,,,0.00,,2013-04-01 03:02:00,
2013-03-31 22:12:00,20.0,12.0,-100.00,NW,320,14.0,22.0,70,0.00,,,0.00,,2013-04-01 03:12:00,
2013-03-31 22:22:00,20.0,12.0,-100.00,NW,320,16.0,21.0,71,0.00,,,0.00,,2013-04-01 03:22:00,
2013-03-31 22:33:00,20.0,12.0,-100.00,NW,320,14.0,21.0,72,0.00,,,0.00,,2013-04-01 03:33:00,
2013-03-31 22:43:00,20.0,12.0,-100.00,NW,325,16.0,19.0,72,0.00,,,0.00,,2013-04-01 03:43:00,
2013-03-31 22:53:00,20.0,12.0,-100.00,NW,325,14.0,21.0,72,0.00,,,0.00,,2013-04-01 03:53:00,
2013-03-31 23:02:00,19.0,12.0,-100.00,NW,320,16.0,22.0,72,0.00,,,0.00,,2013-04-01 04:02:00,
2013-03-31 23:13:00,19.0,12.0,-100.00,NW,320,17.0,22.0,72,0.00,,,0.00,,2013-04-01 04:13:00,
2013-03-31 23:23:00,19.0,12.0,-100.00,NW,320,14.0,22.0,72,0.00,,,0.00,,2013-04-01 04:23:00,
2013-03-31 23:33:00,19.0,12.0,-100.00,NNW,330,16.0,21.0,72,0.00,,,0.00,,2013-04-01 04:33:00,
2013-03-31 23:43:00,19.0,12.0,-100.00,NNW,330,14.0,20.0,72,0.00,,,0.00,,2013-04-01 04:43:00,
2013-03-31 23:52:00,19.0,12.0,-100.00,NW,320,15.0,19.0,72,0.00,,,0.00,,2013-04-01 04:52:00,